Lid_Strength_Index
2 2 1 1 1 1 1 1 1 0 0 0 0 0 0 -0 -0 -0 -0 -0 -0 0 0 1 0 0 0 1 1 2 2 2
2 2 1 1 1 2 1 1 1 1 1 2 1 2 1 0 -0 -0 -0 0 1 1 2 2 0 1 1 1 3 4 5 5
2 2 2 2 2 2 2 1 1 1 1 1 1 1 1 0 0 0 1 1 2 2 2 1 1 1 2 3 5 6 6 5
3 3 2 2 2 2 2 1 1 1 1 1 1 1 1 1 2 2 2 2 2 2 1 1 3 3 4 5 6 6 7 6
3 3 3 3 2 2 1 1 1 1 1 1 2 2 3 3 3 3 3 3 2 1 2 2 3 4 5 5 5 6 6 8
3 3 2 2 2 2 2 2 1 1 1 1 2 2 2 2 3 4 4 3 2 2 3 3 4 4 5 6 6 6 7 7
3 2 2 3 2 2 2 2 2 1 1 1 2 2 3 4 5 5 4 3 3 3 3 4 4 5 5 6 6 6 6 7
3 3 3 3 3 3 2 2 2 2 1 2 2 2 3 4 5 5 4 4 4 4 4 4 5 5 5 6 6 6 7 7
4 3 3 3 3 3 3 2 3 2 2 2 2 2 4 4 4 4 4 5 4 4 4 5 5 6 6 6 7 7 7 7
3 3 3 3 3 3 3 3 2 2 2 3 4 4 4 4 4 4 4 5 4 5 5 6 6 6 6 7 7 8 8 7
4 3 3 3 3 3 2 3 4 4 6 6 6 6 6 5 5 6 5 5 6 6 6 6 6 7 7 7 8 8 8 8
4 3 3 3 3 3 3 4 5 6 7 7 8 7 6 6 6 7 6 7 6 6 6 7 7 8 8 8 8 8 9 9
4 4 3 4 3 4 5 4 6 6 7 7 7 6 7 7 7 7 6 7 6 7 7 7 8 8 8 8 9 9 9 9
4 4 4 4 4 3 4 5 6 6 6 7 8 8 8 8 8 6 7 7 7 8 8 8 8 8 8 9 9 9 9 9
4 4 4 4 3 3 4 4 5 6 7 7 8 8 8 8 7 8 8 8 8 8 8 8 8 8 9 9 9 10 10 10
4 4 4 4 4 4 5 6 5 6 7 8 10 8 8 8 8 9 8 8 8 8 8 8 8 9 10 11 11 12 11 11
4 4 4 4 4 4 5 5 6 7 8 9 8 8 9 9 9 9 9 9 9 9 9 9 9 11 14 14 13 13 11 11
4 4 4 4 3 3 4 6 6 7 8 8 9 9 9 10 10 10 10 10 10 10 10 9 11 13 14 14 14 13 12 12
4 4 3 3 3 3 3 6 6 7 8 8 9 9 10 10 10 10 10 10 10 10 10 10 11 13 14 14 14 13 12 12